Volver al catálogo

OPS 0100

TRANSIT 15

ActivoNavegaciónPO
NORAD 2754·PAYLOAD·🇺🇸 United States

Lanzado Apr 14, 1967 desde Vandenberg Space Force Base

Loading…

Próximos Pases (próximas 24 horas)

TLE

ActualizadoSource: Space-Track

Época: Sep 14, 2026, 09:03 UTC

1 02754U 67034A   26257.37757395  .00000085  00000-0  10692-3 0  9990
2 02754  90.2397  37.3017 0017929 242.2462 146.0701 13.57420941938219

Sigue OPS 0100 en tiempo real con AllMySat

Download on the App Store